Berthoud Pass, CO

11:58 AM MDT on May 26, 2017 (GMT -0600)
Berthoud Pass

Weather History for K0CO - September, 2013

Change the Weather History Date:

Saturday, September 21, 2013

  Actual Average (KBJC) Record (KBJC)
Temperature  
Mean Temperature 42 °F -  
Max Temperature 50 °F 71 °F 87 °F (2015)
Min Temperature 33 °F 47 °F 38 °F (1987)
Degree Days  
Heating Degree Days 24    
Moisture  
Dew Point 32 °F    
Average Humidity 72    
Maximum Humidity 81    
Minimum Humidity 66    
Precipitation  
Precipitation 0.00 in - - ()
Sea Level Pressure  
Sea Level Pressure 30.46 in    
Wind  
Wind Speed 17 mph (West)    
Max Wind Speed 28 mph    
Max Gust Speed 40 mph    
Visibility 10 miles    
Events      
Averages and records for this station are not official NWS values.
T = Trace of Precipitation, MM = Missing Value Source: NWS Daily Summary

Daily Weather History Graph

Daily Weather History Graph

Search for Another Location

Airport or City:

Trip Planner

Search our weather history database for the weather conditions in past years. The results will help you decide how hot, cold, wet, or windy it might be!

Date:

Astronomy

Sep. 21, 2013 Rise Set
Actual Time 6:50 AM MDT 7:01 PM MDT
Civil Twilight 6:23 AM MDT 7:28 PM MDT
Nautical Twilight 5:51 AM MDT 7:59 PM MDT
Astronomical Twilight 5:19 AM MDT 8:31 PM MDT
Moon 8:14 PM MDT (9/21) 9:10 AM MDT (9/21)
Length of Visible Light 13h 05m
Length of Day
12h 11m
Waning Gibbous, 94% of the Moon is Illuminated
Sep 21
Waning Gibbous
Sep 26
Last Quarter
Oct 4
New
Oct 11
First Quarter
Oct 18
Full

Hourly Weather History & Observations

Time (MDT) Temp. Windchill Dew Point Humidity Pressure Visibility Wind Dir Wind Speed Gust Speed Precip Events Conditions
12:09 AM 35.6 °F 26.6 °F 28.4 °F 75% 30.52 in 10.0 mi WNW 13.8 mph - N/A   Clear
12:29 AM 35.6 °F 27.1 °F 28.4 °F 75% 30.52 in 10.0 mi NW 12.7 mph 17.3 mph N/A   Clear
12:49 AM 35.6 °F 25.5 °F 28.4 °F 75% 30.51 in 10.0 mi NW 17.3 mph - N/A   Clear
1:09 AM 35.6 °F 25.2 °F 28.4 °F 75% 30.50 in 10.0 mi WNW 18.4 mph 24.2 mph N/A   Clear
1:29 AM 35.6 °F 24.5 °F 28.4 °F 75% 30.50 in 10.0 mi WNW 20.7 mph 27.6 mph N/A   Clear
1:49 AM 35.6 °F 24.0 °F 28.4 °F 75% 30.49 in 10.0 mi WNW 23.0 mph - N/A   Clear
2:09 AM 35.6 °F 24.0 °F 28.4 °F 75% 30.49 in 10.0 mi West 23.0 mph 26.5 mph N/A   Clear
2:29 AM 35.6 °F 23.7 °F 28.4 °F 75% 30.49 in 10.0 mi WNW 24.2 mph 29.9 mph N/A   Clear
2:49 AM 35.6 °F 23.4 °F 28.4 °F 75% 30.48 in 10.0 mi WNW 25.3 mph 29.9 mph N/A   Clear
3:09 AM 35.6 °F 23.7 °F 28.4 °F 75% 30.48 in 10.0 mi WNW 24.2 mph 29.9 mph N/A   Clear
3:29 AM 35.6 °F 23.4 °F 28.4 °F 75% 30.48 in 10.0 mi WNW 25.3 mph 31.1 mph N/A   Clear
3:49 AM 35.6 °F 24.2 °F 28.4 °F 75% 30.48 in 10.0 mi WNW 21.9 mph 26.5 mph N/A   Clear
4:09 AM 35.6 °F 23.7 °F 28.4 °F 75% 30.48 in 10.0 mi WNW 24.2 mph 31.1 mph N/A   Clear
4:29 AM 33.8 °F 22.5 °F 26.6 °F 75% 30.48 in 10.0 mi WNW 19.6 mph 29.9 mph N/A   Clear
4:49 AM 33.8 °F 22.2 °F 26.6 °F 75% 30.48 in 10.0 mi WNW 20.7 mph 27.6 mph N/A   Clear
5:09 AM 33.8 °F 22.8 °F 28.4 °F 81% 30.47 in 10.0 mi WNW 18.4 mph 27.6 mph N/A   Clear
5:29 AM 35.6 °F 23.7 °F 28.4 °F 75% 30.47 in 10.0 mi WNW 24.2 mph 33.4 mph N/A   Clear
5:49 AM 33.8 °F 21.0 °F 26.6 °F 75% 30.47 in 10.0 mi WNW 25.3 mph 36.8 mph N/A   Clear
6:09 AM 33.8 °F 21.3 °F 26.6 °F 75% 30.47 in 10.0 mi WNW 24.2 mph 31.1 mph N/A   Clear
6:29 AM 35.6 °F 23.4 °F 28.4 °F 75% 30.47 in 10.0 mi WNW 25.3 mph 35.7 mph N/A   Clear
6:49 AM 35.6 °F 23.0 °F 28.4 °F 75% 30.47 in 10.0 mi WNW 27.6 mph 38.0 mph N/A   Clear
7:09 AM 35.6 °F 23.0 °F 28.4 °F 75% 30.47 in 10.0 mi WNW 27.6 mph 38.0 mph N/A   Clear
7:29 AM 35.6 °F 24.0 °F 28.4 °F 75% 30.48 in 10.0 mi WNW 23.0 mph 29.9 mph N/A   Clear
7:49 AM 35.6 °F 24.5 °F 28.4 °F 75% 30.48 in 10.0 mi NW 20.7 mph 32.2 mph N/A   Clear
8:09 AM 35.6 °F 23.4 °F 28.4 °F 75% 30.47 in 10.0 mi WNW 25.3 mph 32.2 mph N/A   Clear
8:29 AM 35.6 °F 25.5 °F 28.4 °F 75% 30.48 in 10.0 mi NW 17.3 mph 29.9 mph N/A   Clear
8:49 AM 35.6 °F 25.2 °F 28.4 °F 75% 30.48 in 10.0 mi NW 18.4 mph 24.2 mph N/A   Clear
9:09 AM 37.4 °F 25.9 °F 30.2 °F 75% 30.48 in 10.0 mi NW 25.3 mph 32.2 mph N/A   Clear
9:29 AM 37.4 °F 28.9 °F 32.0 °F 81% 30.49 in 10.0 mi WNW 13.8 mph 27.6 mph N/A   Clear
9:49 AM 41.0 °F 30.2 °F 32.0 °F 70% 30.48 in 10.0 mi WNW 27.6 mph 34.5 mph N/A   Clear
10:09 AM 41.0 °F 30.2 °F 32.0 °F 70% 30.48 in 10.0 mi West 27.6 mph 40.3 mph N/A   Clear
10:29 AM 42.8 °F 32.9 °F 33.8 °F 70% 30.48 in 10.0 mi NW 26.5 mph 38.0 mph N/A   Scattered Clouds
10:49 AM 42.8 °F 32.9 °F 33.8 °F 70% 30.48 in 10.0 mi WNW 26.5 mph 33.4 mph N/A   Scattered Clouds
11:09 AM 42.8 °F 33.5 °F 33.8 °F 70% 30.49 in 10.0 mi WNW 23.0 mph 34.5 mph N/A   Clear
11:29 AM 44.6 °F 36.4 °F 35.6 °F 71% 30.49 in 10.0 mi WNW 20.7 mph 28.8 mph N/A   Clear
11:49 AM 44.6 °F 36.6 °F 33.8 °F 66% 30.49 in 10.0 mi NW 19.6 mph 29.9 mph N/A   Scattered Clouds
12:09 PM 42.8 °F 36.2 °F 33.8 °F 70% 30.49 in 10.0 mi NNW 12.7 mph 25.3 mph N/A   Scattered Clouds
12:29 PM 46.4 °F 39.0 °F 37.4 °F 71% 30.49 in 10.0 mi NW 19.6 mph 29.9 mph N/A   Mostly Cloudy
12:49 PM 44.6 °F 37.4 °F 35.6 °F 71% 30.49 in 10.0 mi WNW 16.1 mph 24.2 mph N/A   Mostly Cloudy
1:09 PM 46.4 °F 40.7 °F 37.4 °F 71% 30.48 in 10.0 mi NW 12.7 mph 21.9 mph N/A   Mostly Cloudy
1:29 PM 48.2 °F - 39.2 °F 71% 30.48 in 10.0 mi West 12.7 mph 23.0 mph N/A   Mostly Cloudy
1:49 PM 48.2 °F - 37.4 °F 66% 30.47 in 10.0 mi WNW 13.8 mph 20.7 mph N/A   Mostly Cloudy
2:09 PM 46.4 °F 39.5 °F 37.4 °F 71% 30.47 in 10.0 mi WSW 17.3 mph 21.9 mph N/A   Scattered Clouds
2:29 PM 46.4 °F 41.1 °F 37.4 °F 71% 30.47 in 10.0 mi West 11.5 mph 25.3 mph N/A   Clear
2:49 PM 46.4 °F 44.3 °F 35.6 °F 66% 30.46 in 10.0 mi WSW 4.6 mph 17.3 mph N/A   Mostly Cloudy
3:09 PM 48.2 °F - 37.4 °F 66% 30.46 in 10.0 mi West 9.2 mph 17.3 mph N/A   Mostly Cloudy
3:29 PM 44.6 °F 39.2 °F 35.6 °F 71% 30.45 in 10.0 mi West 10.4 mph - N/A   Mostly Cloudy
3:49 PM 44.6 °F - 35.6 °F 71% 30.45 in 10.0 mi Calm Calm - N/A   Overcast
4:09 PM 46.4 °F 41.5 °F 37.4 °F 71% 30.44 in 10.0 mi SW 10.4 mph 17.3 mph N/A   Mostly Cloudy
4:29 PM 48.2 °F - 39.2 °F 71% 30.44 in 10.0 mi WSW 11.5 mph 17.3 mph N/A   Mostly Cloudy
4:49 PM 50.0 °F - 41.0 °F 71% 30.43 in 10.0 mi WSW 11.5 mph 17.3 mph N/A   Overcast
5:09 PM 46.4 °F - 37.4 °F 71% 30.43 in 10.0 mi Calm Calm - N/A   Mostly Cloudy
5:29 PM 46.4 °F - 37.4 °F 71% 30.43 in 10.0 mi Calm Calm - N/A   Mostly Cloudy
5:49 PM 48.2 °F - 37.4 °F 66% 30.42 in 10.0 mi WSW 9.2 mph - N/A   Mostly Cloudy
6:09 PM 46.4 °F 41.5 °F 37.4 °F 71% 30.42 in 10.0 mi WSW 10.4 mph - N/A   Mostly Cloudy
6:29 PM 44.6 °F 40.2 °F 35.6 °F 71% 30.42 in 10.0 mi WSW 8.1 mph - N/A   Mostly Cloudy
6:49 PM 44.6 °F 41.4 °F 35.6 °F 71% 30.41 in 10.0 mi WSW 5.8 mph - N/A   Mostly Cloudy
7:09 PM 42.8 °F 39.3 °F 33.8 °F 70% 30.41 in 10.0 mi WSW 5.8 mph - N/A   Scattered Clouds
7:29 PM 41.0 °F 35.8 °F 32.0 °F 70% 30.41 in 10.0 mi WSW 8.1 mph - N/A   Clear
7:49 PM 41.0 °F 36.4 °F 32.0 °F 70% 30.41 in 10.0 mi West 6.9 mph - N/A   Clear
8:09 PM 41.0 °F 35.8 °F 32.0 °F 70% 30.41 in 10.0 mi West 8.1 mph - N/A   Clear
8:29 PM 41.0 °F 38.0 °F 32.0 °F 70% 30.41 in 10.0 mi WSW 4.6 mph - N/A   Clear
8:49 PM 41.0 °F 39.0 °F 32.0 °F 70% 30.41 in 10.0 mi WNW 3.5 mph - N/A   Clear
9:09 PM 41.0 °F 39.0 °F 32.0 °F 70% 30.40 in 10.0 mi WSW 3.5 mph - N/A   Clear
9:29 PM 41.0 °F 37.1 °F 32.0 °F 70% 30.40 in 10.0 mi WSW 5.8 mph - N/A   Clear
9:49 PM 41.0 °F - 32.0 °F 70% 30.39 in 10.0 mi Calm Calm - N/A   Clear
10:09 PM 41.0 °F - 32.0 °F 70% 30.39 in 10.0 mi Calm Calm - N/A   Clear
10:29 PM 39.2 °F 37.0 °F 32.0 °F 75% 30.39 in 10.0 mi West 3.5 mph - N/A   Clear
10:49 PM 39.2 °F 37.0 °F 32.0 °F 75% 30.38 in 10.0 mi WSW 3.5 mph - N/A   Clear
11:09 PM 39.2 °F 37.0 °F 32.0 °F 75% 30.37 in 10.0 mi SSW 3.5 mph - N/A   Clear
11:29 PM 39.2 °F 32.5 °F 32.0 °F 75% 30.36 in 10.0 mi SW 10.4 mph - N/A   Clear
11:49 PM 37.4 °F - 30.2 °F 75% 30.36 in 10.0 mi Calm Calm - N/A   Clear